SL-8 DEB, 1478

Orbit data source: Space-Track

SL-8 DEB, 1478 is space debris in LEO originally from a launch on Mon, 15 Mar 1965 UTC launched from the Tyuratam Missile And Space Complex (TTMTR). Debris objects in space refer to the collection of defunct objects orbiting the Earth. Examples of debris include non-operational satellites, rocket bodies, and fragments generated from explosions, collisions, or faulty payload assembly.

Loading next visibility...
Identifier
1478, 1965-020BC
Orbit
LEO
Last TLE update
7 hours ago
Origin
Manufacturer
Unknown
Mission
Spacecraft
Bus & Motor
Unknown
Mass
Unknown
Launch date (UTC)
1965-03-15 (60 years ago)
Launch vehicle
Unknown
Launch site
Tyuratam Missile And Space Complex (TTMTR)
Object type
Payload
Rocket body
Debris
Shape & HBR
Unknown
Radar Cross Section
Medium (>0.1 m² and <1 m²)

Expand to show TLE details & history

TLE from 7 hours ago
0 SL-8 DEB
1 01478U 65020BC  25182.90006476  .00000735  00000-0  40912-3 0  9997
2 01478  56.0781  55.5718 0598212  22.1450 340.4223 13.53971107877390
Epoch: 2025-07-01T21:36Z
TLE epoch observation values (Epoch: 2025-07-01T21:36:05.595Z)
Latitude
-0.00008°
Longitude
171.35955°
Altitude
642.941 km
Speed
7.745 km/s
True Right ascension
03h 42m 17s
True Declination
0° 00' 00"
Sunlit
Object was in daylight at epoch
Visualization orbit readout
Latitude
-15.7001°
Longitude
159.56738°
Altitude
717.579 km
Speed
7.668 km/s
Apparent Right ascension
03h 29m 33s
Apparent Declination
-27° 22' 48"
Sunlit
Object is in daylight
Visualization observer readout
Local Sidereal Time
16:17:46
Azimuth
42.202° NE
Elevation
-73.975°
Doppler factor
1
Orbital elements
Apogee altitude
1,502.301 km
Perigee altitude
612.684 km
Semi-major axis
7,435.63 km
Eccentricity
0.05982
Inclination
56.0781°
RAAN
55.5718°
Arg. of periapsis
22.145°
True anomaly
Unknown
Mean anomaly
340.4223°
Eccentric anomaly
Unknown
Mean motion
3.38506 °/min
Orbital period
106.35 mins
BSTAR
0.00040912
Loading maneuver chart data...
Loading SW <> Apogee altitude chart data...
Loading historical data...
Loading historical data...
Loading historical data...
Loading historical data...
Loading historical data...
Loading historical data...
Loading historical data...

SL-8 DEB Visibility forecast

Observer location: undefined°, undefined°

Span
Click to sort rows by Start time (UTC) header in descending order
Start Az.
Max El. time (UTC)
Max El. Az.
Max El.
End time (UTC)
End Az.
7 mins2025-07-02 17:14:20.562Z185.924° SSW2025-07-02 17:17:20.562Z126.594° SE30.52°2025-07-02 17:21:20.562Z61.531° ENE
7 mins2025-07-02 19:05:20.562Z276.522° WNW2025-07-02 19:07:20.562Z315.013° NNW28.652°2025-07-02 19:12:20.562Z32.424° NE
5 mins2025-07-02 20:58:20.562Z332.621° NNW2025-07-02 21:00:20.562Z358.342° N15.191°2025-07-02 21:03:20.562Z30.038° NE
7 mins2025-07-02 22:50:20.562Z349.213° N2025-07-02 22:52:20.562Z14.242° NNE19.924°2025-07-02 22:57:20.562Z64.975° ENE
12 mins2025-07-03 00:40:20.562Z327.873° NNW2025-07-03 00:44:20.562Z30.712° NE40.23°2025-07-03 00:52:20.562Z118.542° SE
12 mins2025-07-03 02:30:20.562Z293.756° NW2025-07-03 02:35:20.562Z235.02° WSW32.347°2025-07-03 02:42:20.562Z171.58° S
|